Wind_Speed
3 3 3 4 4 4 5 6 6 7 7 6 5 4 4 4 3 4 4 4 5 4 4 4 4 5 5 5 4 4 4 5 6 5 5 4 4 5 5 6 6 7 7
3 3 3 3 3 3 4 5 6 6 6 6 5 5 5 4 4 4 4 5 5 5 5 5 6 5 6 6 6 6 6 6 7 6 6 5 6 6 7 8 7 8 8
3 3 3 3 3 3 4 5 6 6 6 6 6 5 5 5 5 5 5 5 5 5 6 6 6 7 7 7 7 7 7 7 7 7 7 6 7 7 8 8 8 8 9
2 2 2 3 3 3 4 5 6 6 6 6 5 4 4 5 4 5 4 5 6 6 6 7 7 8 8 8 8 8 8 8 8 8 8 7 8 8 9 9 9 9 9
1 1 2 2 2 3 4 5 5 6 6 6 6 6 5 5 4 4 5 5 6 7 8 7 8 8 8 8 8 9 9 9 9 9 9 9 9 10 11 10 10 9 10
1 2 2 2 2 3 4 4 5 6 6 6 6 6 6 6 5 5 5 5 6 6 7 8 8 9 9 9 9 9 10 10 9 10 10 11 11 11 12 11 11 11 11
2 1 1 1 2 3 3 4 5 5 6 6 6 7 7 7 6 6 6 6 5 6 6 7 7 8 9 9 10 10 10 9 9 10 11 11 12 12 13 12 12 12 11
2 1 1 0 1 2 3 4 4 5 6 6 7 8 8 7 6 5 5 5 6 7 7 8 8 8 9 9 10 10 9 9 9 10 11 11 11 12 12 12 12 12 13
3 2 1 1 1 1 3 4 4 4 5 6 7 7 7 7 7 6 6 7 7 8 8 8 8 9 9 10 11 10 10 10 11 12 12 12 13 13 13 13 13 13 14
3 3 2 2 2 2 3 4 5 5 6 6 7 7 8 8 7 7 8 8 8 9 9 9 9 10 10 11 11 10 11 11 10 12 11 12 12 13 13 13 14 14 15
3 3 3 2 2 2 3 4 6 6 7 7 8 8 8 8 8 8 9 9 9 10 10 10 10 10 11 12 12 12 12 12 13 13 13 13 14 14 14 15 16 16 17
4 4 4 4 4 4 5 5 6 7 8 8 8 8 9 9 10 9 10 10 11 11 11 12 12 13 13 13 14 15 14 14 14 14 15 15 15 16 16 17 18 18 18
5 5 5 5 5 5 5 6 7 8 8 9 9 9 9 10 10 11 11 11 12 12 13 14 14 14 14 15 15 15 16 16 16 16 17 17 17 17 18 19 19 19 20
6 7 6 6 6 6 7 7 7 7 8 9 9 10 10 12 12 11 12 12 13 13 14 15 15 15 15 16 16 16 17 17 18 18 19 19 20 20 20 20 20 20 20
7 7 7 7 7 8 9 9 8 8 9 10 10 11 11 12 12 12 13 13 14 14 15 15 16 16 16 16 17 18 18 18 19 20 21 21 21 22 22 21 21 21 21
9 9 10 10 10 10 9 9 9 9 9 10 10 11 12 13 13 13 14 15 16 16 15 15 16 16 16 17 17 18 19 20 21 21 21 21 22 22 22 23 23 22 21
11 11 11 11 11 11 12 12 11 11 11 11 11 11 12 13 14 14 15 16 16 16 16 16 16 17 18 18 18 19 19 20 21 21 21 22 22 23 23 23 23 22 22
13 13 14 13 13 14 14 14 14 14 13 13 13 13 14 15 15 15 16 16 17 17 17 17 18 19 19 20 21 21 21 21 21 21 21 22 22 22 23 23 23 23 23
15 15 15 15 15 15 15 16 16 15 15 15 16 16 17 17 17 17 18 18 19 19 19 19 20 21 21 21 22 22 22 22 21 22 22 23 24 24 24 24 24 24 25
17 17 17 17 17 17 17 17 17 16 17 17 18 19 19 19 20 20 20 20 20 21 21 21 22 22 23 23 23 23 23 23 23 23 24 24 24 25 25 26 26 27 27
18 19 19 19 19 19 19 19 18 18 19 20 20 21 21 21 22 22 22 22 23 23 23 23 24 24 24 24 25 25 25 24 24 25 25 25 26 26 27 27 28 29 29
20 21 21 21 21 21 20 20 20 21 21 22 23 23 23 23 23 24 24 24 25 25 25 25 25 25 25 26 26 27 27 27 27 27 27 27 27 28 28 29 30 31 31
22 22 22 22 22 22 22 23 23 22 23 23 24 25 25 25 25 26 27 27 27 27 27 28 28 27 28 28 28 28 29 30 29 29 29 29 30 31 31 31 30 31 32
22 22 22 23 23 23 24 25 25 24 25 25 25 26 26 27 28 28 28 28 28 29 29 29 29 29 29 29 30 30 30 31 31 30 31 31 31 32 32 32 32 33 33
23 23 23 24 24 25 25 26 25 25 26 26 26 26 27 28 29 29 29 28 29 30 31 31 31 30 31 31 32 32 32 32 31 32 33 33 33 33 33 33 33 34 34
24 24 24 24 25 25 26 26 26 26 27 27 27 27 27 28 29 29 29 30 30 31 32 33 32 33 33 33 34 34 34 34 33 33 33 33 33 34 33 33 33 33 34
Wind_Direction
156 149 172 192 202 200 202 207 209 197 197 201 210 220 230 224 235 248 250 253 252 251 254 247 247 252 255 258 261 263 260 253 255 250 248 251 255 264 266 278 275 266 269
145 147 166 179 187 185 192 199 200 196 198 204 212 223 225 232 242 253 255 255 253 253 252 246 252 255 258 262 263 262 260 258 255 252 256 262 262 271 272 274 276 270 267
138 165 178 182 183 179 190 194 196 204 203 207 214 222 229 235 243 244 247 250 253 257 258 256 260 256 257 264 267 267 264 262 261 258 263 262 265 271 274 278 272 271 268
140 179 191 189 191 187 189 191 194 201 203 210 216 220 233 238 249 253 254 261 262 259 256 255 256 256 261 265 270 271 269 264 261 264 266 265 269 272 275 279 274 270 268
128 166 188 197 186 181 181 189 192 203 210 217 223 227 235 246 256 265 269 266 270 267 263 260 258 257 264 267 272 275 269 265 265 268 270 270 271 274 273 273 274 270 271
109 140 168 175 179 179 182 195 205 217 227 232 230 232 236 244 253 266 268 265 271 268 260 258 260 258 263 268 272 274 266 263 265 268 269 273 274 274 272 268 270 271 272
42 105 141 165 195 199 203 213 221 226 235 238 235 239 244 251 265 273 272 269 265 268 269 266 264 262 263 267 268 266 266 267 270 272 273 277 277 274 271 267 267 268 270
14 23 42 272 229 226 228 229 234 237 241 239 238 244 253 259 266 270 267 273 269 269 267 267 268 265 267 269 265 265 269 269 269 274 275 276 276 274 270 268 269 268 267
7 10 345 323 299 247 237 242 241 246 248 245 244 245 248 254 260 264 269 274 273 273 272 268 266 268 269 269 264 264 270 274 274 275 276 274 276 273 270 270 270 268 269
1 354 335 292 270 266 258 252 253 254 255 256 253 251 251 251 255 260 267 271 272 272 273 270 266 267 266 267 264 267 269 271 274 275 276 275 276 276 272 272 272 270 273
340 338 324 315 270 266 266 257 257 255 258 260 258 256 252 253 255 258 262 270 275 277 280 277 275 269 270 268 264 270 273 275 277 276 276 275 275 273 274 273 273 272 272
317 322 323 312 300 284 271 266 268 262 261 263 259 256 255 260 262 265 266 271 275 278 281 279 277 272 271 271 271 271 273 275 274 274 273 273 275 274 275 275 274 274 272
305 303 307 309 304 297 291 279 274 275 271 266 259 259 262 266 270 268 270 273 274 277 280 279 276 274 272 273 274 273 273 273 273 273 273 273 273 274 276 275 274 274 273
302 296 296 294 290 289 291 289 285 282 276 274 268 265 267 271 273 272 273 274 275 277 278 278 274 275 275 274 275 275 274 273 273 274 274 273 273 273 274 274 273 272 273
302 303 300 298 294 286 284 286 288 285 284 280 276 274 273 274 275 275 275 275 278 280 280 277 275 277 276 276 275 275 275 275 274 273 273 273 274 273 274 273 273 272 271
294 297 295 290 288 287 287 289 293 295 292 286 282 278 277 279 279 279 280 280 281 281 280 280 280 283 282 279 278 277 274 275 275 274 274 274 274 273 272 272 271 271 271
287 288 289 288 286 289 292 295 288 288 288 286 286 286 288 286 284 283 282 283 284 284 282 281 282 284 282 281 280 281 280 279 279 278 277 277 275 274 273 272 271 270 271
285 288 287 289 289 290 292 293 290 289 283 280 281 283 285 286 286 285 285 285 286 287 287 285 284 283 281 279 280 281 281 280 279 280 279 279 278 276 275 274 272 271 271
287 287 286 287 288 287 288 289 288 285 281 280 279 281 281 283 284 284 285 286 285 286 285 285 283 282 281 280 280 281 280 279 278 279 279 279 277 276 275 274 273 272 271
286 285 286 286 286 284 284 285 285 285 283 283 283 282 283 282 283 284 285 285 284 284 283 282 281 281 281 280 280 280 280 280 278 279 280 279 278 277 276 274 273 272 271
284 284 286 286 285 282 282 282 282 282 283 284 284 283 283 283 284 284 285 284 284 283 280 279 280 280 281 280 279 279 279 280 280 280 279 279 279 278 275 274 273 272 272
283 283 285 286 284 283 282 282 281 281 282 282 282 283 283 283 284 285 284 284 284 284 281 280 280 279 279 279 278 279 279 279 279 280 280 279 278 277 275 274 273 272 271
283 281 284 284 283 283 283 281 280 279 280 283 283 282 282 283 283 284 285 285 286 285 283 281 279 278 278 277 277 278 279 280 279 279 279 278 278 277 275 274 273 272 271
282 281 283 284 283 283 282 281 279 279 280 282 282 282 282 282 283 285 285 284 284 285 285 284 282 281 280 279 279 278 279 279 279 278 278 278 277 276 276 275 274 273 272
283 280 281 282 281 280 280 280 279 280 281 281 282 284 284 283 283 283 284 284 284 284 284 286 284 283 282 281 281 280 279 279 278 278 278 278 278 277 276 275 274 273 273
285 283 282 280 280 282 283 281 280 281 281 281 283 283 283 283 283 282 282 284 284 285 285 285 284 284 284 283 281 281 280 278 278 277 277 277 277 277 275 274 273 273 272
Height
5883 5883 5884 5884 5885 5886 5887 5888 5889 5891 5892 5894 5895 5896 5896 5897 5897 5897 5897 5897 5897 5897 5897 5897 5897 5897 5897 5896 5896 5895 5895 5894 5894 5894 5894 5893 5893 5893 5892 5892 5891 5891 5891
5883 5883 5884 5884 5885 5885 5886 5887 5888 5890 5892 5893 5894 5895 5895 5895 5896 5896 5896 5896 5896 5896 5896 5896 5896 5895 5895 5895 5894 5894 5893 5893 5893 5892 5892 5892 5891 5891 5891 5890 5890 5889 5889
5883 5883 5884 5884 5885 5885 5885 5886 5888 5889 5891 5892 5893 5893 5894 5894 5894 5894 5894 5894 5894 5894 5894 5894 5894 5894 5893 5893 5893 5892 5892 5891 5891 5891 5890 5890 5890 5889 5889 5888 5887 5887 5887
5883 5883 5884 5884 5885 5885 5885 5886 5887 5888 5890 5891 5892 5892 5893 5892 5893 5893 5893 5893 5892 5893 5893 5892 5892 5892 5892 5891 5891 5891 5890 5890 5889 5889 5888 5888 5888 5887 5887 5886 5885 5885 5884
5883 5883 5883 5884 5884 5885 5885 5886 5887 5888 5889 5890 5891 5891 5891 5891 5891 5891 5891 5891 5891 5891 5891 5890 5890 5890 5890 5889 5889 5888 5888 5887 5887 5887 5886 5886 5885 5885 5884 5883 5883 5882 5882
5883 5883 5883 5884 5884 5885 5886 5886 5887 5888 5889 5889 5889 5890 5890 5890 5890 5889 5889 5889 5889 5888 5888 5888 5888 5887 5887 5887 5886 5886 5885 5884 5885 5884 5884 5883 5883 5882 5881 5881 5880 5880 5879
5884 5884 5883 5884 5884 5885 5885 5886 5886 5887 5887 5888 5888 5888 5888 5888 5888 5887 5887 5887 5887 5886 5886 5886 5885 5885 5885 5884 5884 5883 5882 5882 5882 5881 5881 5880 5880 5879 5878 5878 5877 5877 5876
5884 5883 5883 5884 5884 5884 5884 5885 5885 5885 5886 5886 5887 5887 5887 5887 5886 5886 5886 5885 5885 5885 5884 5883 5883 5882 5882 5882 5881 5880 5879 5879 5879 5878 5878 5877 5876 5876 5875 5875 5874 5874 5873
5884 5884 5883 5883 5883 5883 5884 5884 5884 5884 5884 5885 5885 5885 5885 5885 5885 5885 5884 5884 5883 5883 5882 5881 5880 5880 5879 5879 5878 5877 5877 5876 5876 5875 5874 5873 5873 5872 5872 5872 5871 5871 5870
5884 5883 5883 5882 5882 5882 5882 5882 5883 5883 5883 5883 5883 5883 5883 5883 5882 5882 5882 5881 5881 5880 5880 5879 5878 5877 5877 5876 5875 5874 5874 5873 5872 5872 5871 5870 5870 5869 5868 5868 5868 5867 5866
5884 5883 5882 5882 5881 5881 5881 5881 5881 5881 5881 5881 5880 5880 5880 5880 5880 5879 5879 5879 5878 5877 5876 5876 5875 5874 5873 5873 5872 5871 5871 5870 5869 5869 5868 5867 5866 5865 5865 5864 5864 5863 5862
5883 5882 5881 5880 5880 5879 5879 5879 5879 5878 5878 5878 5878 5877 5877 5877 5877 5876 5876 5876 5875 5875 5873 5872 5871 5871 5870 5869 5868 5867 5867 5866 5865 5864 5864 5863 5862 5861 5861 5860 5859 5859 5858
5881 5881 5880 5879 5879 5878 5877 5877 5877 5876 5875 5875 5875 5874 5874 5874 5873 5873 5873 5872 5872 5871 5870 5869 5868 5867 5866 5865 5863 5863 5862 5861 5861 5860 5859 5858 5858 5857 5856 5855 5854 5854 5853
5879 5879 5878 5878 5877 5876 5875 5875 5874 5873 5873 5872 5871 5871 5871 5870 5870 5869 5869 5868 5868 5867 5866 5865 5864 5862 5861 5860 5859 5858 5857 5856 5855 5855 5854 5853 5852 5851 5851 5850 5849 5848 5847
5877 5877 5876 5875 5874 5874 5873 5872 5871 5870 5870 5869 5868 5868 5867 5866 5866 5865 5865 5864 5864 5863 5862 5860 5859 5857 5856 5855 5854 5853 5852 5851 5850 5849 5848 5847 5846 5845 5845 5844 5843 5842 5842
5874 5874 5873 5872 5871 5870 5869 5869 5868 5868 5867 5866 5865 5864 5864 5863 5862 5861 5860 5859 5858 5858 5857 5856 5854 5852 5851 5850 5849 5847 5846 5845 5844 5843 5842 5841 5840 5839 5838 5838 5837 5836 5836
5871 5870 5870 5869 5868 5867 5866 5865 5865 5864 5863 5862 5861 5860 5859 5859 5858 5856 5855 5854 5853 5852 5851 5850 5849 5847 5846 5845 5843 5842 5841 5839 5838 5837 5836 5835 5834 5833 5832 5831 5831 5830 5829
5868 5867 5866 5865 5864 5863 5862 5861 5861 5859 5859 5858 5857 5856 5855 5854 5853 5852 5850 5849 5848 5846 5845 5844 5843 5841 5840 5839 5837 5836 5834 5833 5832 5831 5829 5828 5827 5826 5826 5825 5824 5823 5823
5863 5862 5861 5861 5860 5859 5858 5857 5856 5855 5854 5853 5853 5851 5850 5849 5848 5846 5845 5844 5842 5840 5839 5837 5836 5835 5833 5832 5831 5829 5828 5827 5825 5824 5823 5821 5820 5819 5819 5818 5817 5816 5816
5859 5858 5856 5856 5855 5854 5853 5852 5851 5850 5849 5848 5847 5846 5844 5843 5842 5840 5839 5837 5836 5834 5832 5831 5829 5828 5826 5825 5824 5823 5821 5820 5819 5817 5815 5814 5813 5812 5811 5811 5810 5809 5808
5853 5852 5851 5850 5849 5848 5847 5846 5845 5844 5843 5842 5841 5840 5839 5837 5836 5834 5832 5831 5829 5827 5825 5823 5822 5820 5819 5817 5816 5815 5814 5812 5811 5809 5808 5807 5806 5805 5804 5803 5802 5801 5800
5847 5846 5845 5844 5843 5842 5841 5840 5839 5838 5837 5836 5835 5833 5832 5830 5828 5827 5825 5823 5821 5819 5817 5815 5814 5812 5811 5809 5808 5807 5806 5805 5803 5802 5800 5799 5798 5797 5796 5794 5793 5792 5792
5841 5840 5838 5837 5836 5836 5834 5833 5832 5831 5830 5829 5827 5826 5824 5823 5821 5819 5817 5815 5813 5811 5809 5807 5805 5804 5802 5801 5799 5798 5797 5795 5794 5792 5790 5790 5788 5787 5787 5785 5784 5783 5782
5834 5833 5832 5831 5829 5828 5827 5825 5824 5823 5822 5821 5819 5818 5816 5814 5812 5811 5809 5807 5805 5802 5800 5798 5796 5794 5793 5791 5790 5789 5787 5786 5784 5783 5781 5780 5779 5777 5776 5776 5775 5774 5773
5827 5826 5824 5823 5822 5820 5819 5817 5816 5814 5813 5812 5811 5809 5807 5806 5804 5802 5800 5798 5796 5793 5791 5789 5787 5785 5783 5781 5780 5778 5776 5775 5774 5773 5771 5770 5768 5767 5766 5765 5764 5763 5763
5819 5817 5816 5814 5813 5812 5811 5809 5807 5806 5804 5803 5802 5800 5798 5796 5794 5792 5791 5789 5787 5784 5781 5779 5777 5775 5773 5771 5769 5767 5766 5764 5763 5762 5761 5759 5757 5756 5756 5755 5754 5753 5752